GW5961 Weather Reports


time (UTC)temp
F
wind
direction
speed
knots
gust
knots
rain 1hr
in
rain 24hr
in
rain mn
in
humidity
%
barometer
mb
20260503230404 75 339 0.9 2.6 0.00 0.00 0.00 46 1011.4
20260503225902 75 337 3.5 3.5 0.00 0.00 0.00 43 1011.4
20260503225357 74 357 1.7 2.6 0.00 0.00 0.00 46 1011.5
20260503224854 74 356 1.7 3.5 0.00 0.00 0.00 41 1011.5
20260503224351 74 13 1.7 2.6 0.00 0.00 0.00 52 1011.6
20260503223849 74 10 2.6 2.6 0.00 0.00 0.00 45 1011.8
20260503223346 74 11 1.7 2.6 0.00 0.00 0.00 46 1011.7
20260503222841 75 355 3.5 3.5 0.00 0.00 0.00 46 1011.8
20260503222340 74 334 3.5 3.5 0.00 0.00 0.00 43 1011.9
20260503221838 75 333 0.9 2.6 0.00 0.00 0.00 42 1012.1
20260503221337 73 322 0.9 2.6 0.00 0.00 0.00 51 1012.1
20260503220832 73 11 1.7 3.5 0.00 0.00 0.00 52 1012.1
20260503220329 73 347 1.7 5.2 0.00 0.00 0.00 53 1012.3
20260503215826 72 316 1.7 5.2 0.00 0.00 0.00 46 1012.3
20260503215323 72 317 3.5 5.2 0.00 0.00 0.00 50 1012.4
20260503214821 71 352 1.7 5.2 0.00 0.00 0.00 54 1012.5
20260503214318 71 350 2.6 3.5 0.00 0.00 0.00 54 1012.6
20260503213815 71 13 3.5 7.0 0.00 0.00 0.00 50 1012.6
20260503213313 71 9 5.2 7.8 0.00 0.00 0.00 52 1012.8
20260503212810 71 3 2.6 7.0 0.00 0.00 0.00 53 1012.6
20260503212308 71 9 6.1 7.0 0.00 0.00 0.00 52 1012.7
20260503211805 70 3 5.2 7.0 0.00 0.00 0.00 53 1012.8
20260503211301 71 13 2.6 6.1 0.00 0.00 0.00 54 1012.8
20260503210801 70 338 2.6 7.0 0.00 0.00 0.00 60 1012.9
20260503210259 70 1 5.2 7.0 0.00 0.00 0.00 54 1012.8
20260503205754 70 354 4.3 6.1 0.00 0.00 0.00 56 1012.9
20260503205251 69 27 4.3 7.8 0.00 0.00 0.00 53 1012.8
20260503204747 70 339 5.2 7.8 0.00 0.00 0.00 54 1012.9
20260503204245 71 2 7.8 8.7 0.00 0.00 0.00 51 1013.0
20260503203742 71 341 3.5 7.8 0.00 0.00 0.00 56 1012.8
20260503203239 71 2 3.5 7.0 0.00 0.00 0.00 54 1012.9
20260503202736 71 9 6.1 7.8 0.00 0.00 0.00 50 1012.9
20260503202234 71 0 7.0 7.8 0.00 0.00 0.00 48 1013.0
20260503201732 71 336 6.1 7.8 0.00 0.00 0.00 45 1012.9
20260503201229 72 350 5.2 6.1 0.00 0.00 0.00 47 1012.8
20260503200726 72 6 2.6 5.2 0.00 0.00 0.00 56 1013.2
20260503200222 72 359 2.6 3.5 0.00 0.00 0.00 58 1013.0
20260503195719 71 343 1.7 3.5 0.00 0.00 0.00 57 1013.0
20260503195216 71 350 3.5 3.5 0.00 0.00 0.00 54 1013.1
20260503194713 71 20 3.5 3.5 0.00 0.00 0.00 52 1013.3
20260503194209 70 340 3.5 5.2 0.00 0.00 0.00 53 1013.3
20260503193705 70 353 1.7 3.5 0.00 0.00 0.00 56 1013.5
20260503193201 70 335 3.5 6.1 0.00 0.00 0.00 52 1013.5
20260503192657 70 346 4.3 6.1 0.00 0.00 0.00 52 1013.6
20260503192152 70 345 4.3 6.1 0.00 0.00 0.00 54 1013.6
20260503191649 70 350 2.6 6.1 0.00 0.00 0.00 49 1013.5
20260503191147 70 4 3.5 5.2 0.00 0.00 0.00 50 1013.8
20260503190643 70 356 2.6 3.5 0.00 0.00 0.00 54 1013.8
20260503190140 70 16 3.5 6.1 0.00 0.00 0.00 51 1013.8
20260503185637 70 26 1.7 3.5 0.00 0.00 0.00 56 1013.9
20260503185132 70 6 1.7 3.5 0.00 0.00 0.00 52 1013.8
20260503184627 70 19 3.5 3.5 0.00 0.00 0.00 50 1013.8
20260503184124 71 318 1.7 2.6 0.00 0.00 0.00 53 1014.0
20260503183620 69 341 2.6 5.2 0.00 0.00 0.00 53 1014.2
20260503183118 69 345 0.9 5.2 0.00 0.00 0.00 52 1014.1
20260503182616 71 281 1.7 2.6 0.00 0.00 0.00 48 1014.0
20260503182114 69 331 1.7 3.5 0.00 0.00 0.00 52 1014.3
20260503181611 69 12 2.6 5.2 0.00 0.00 0.00 54 1014.2
20260503181107 69 14 1.7 2.6 0.00 0.00 0.00 52 1014.4
20260503180605 70 310 1.7 1.7 0.00 0.00 0.00 49 1014.4
20260503175559 69 314 0.9 2.6 0.00 0.00 0.00 49 1014.4
20260503175056 69 2 3.5 5.2 0.00 0.00 0.00 51 1014.5
20260503174553 68 21 0.9 2.6 0.00 0.00 0.00 55 1014.4
20260503174049 69 17 0.0 2.6 0.00 0.00 0.00 56 1014.7
20260503173544 70 348 0.9 2.6 0.00 0.00 0.00 53 1014.4
20260503173041 69 347 0.0 0.0 0.00 0.00 0.00 56 1014.9
20260503172539 68 350 1.7 2.6 0.00 0.00 0.00 51 1014.6
20260503172036 69 60 1.7 3.5 0.00 0.00 0.00 51 1014.6
20260503171532 69 331 2.6 2.6 0.00 0.00 0.00 51 1014.6
20260503171030 69 346 1.7 3.5 0.00 0.00 0.00 52 1014.9
20260503170526 69 30 0.0 0.9 0.00 0.00 0.00 52 1014.7
20260503150918 68 220 0.0 1.7 0.00 0.00 0.00 54 1015.2
20260503150415 68 221 0.0 1.7 0.00 0.00 0.00 56 1015.3
20260503131308 50 209 1.7 2.6 0.00 0.00 0.00 82 1014.8
20260503130806 50 209 1.7 2.6 0.00 0.00 0.00 82 1014.7
20260503130303 50 209 1.7 2.6 0.00 0.00 0.00 82 1014.5
20260503110656 52 187 0.0 0.9 0.00 0.00 0.00 79 1014.5
20260503110154 52 187 0.9 1.7 0.00 0.00 0.00 78 1014.5
20260503100120 59 230 1.7 2.6 0.00 0.00 0.00 62 1014.2
20260503081510 60 219 1.7 2.6 0.00 0.00 0.00 61 1014.3
20260503081007 61 232 1.7 3.5 0.00 0.00 0.00 60 1014.5
20260503080503 61 244 2.6 3.5 0.00 0.00 0.00 60 1014.4
20260503072939 60 231 1.7 2.6 0.00 0.00 0.00 60 1014.1
20260503072437 60 239 0.0 0.9 0.00 0.00 0.00 63 1014.2
20260503071934 60 239 0.9 1.7 0.00 0.00 0.00 63 1014.1
20260503071431 61 238 0.9 1.7 0.00 0.00 0.00 61 1014.2
20260503070926 60 233 0.0 1.7 0.00 0.00 0.00 62 1014.3
20260503070424 61 247 0.0 0.0 0.00 0.00 0.00 63 1014.3
20260503054837 62 241 0.9 1.7 0.00 0.00 0.00 61 1014.2
20260503054333 62 222 0.9 1.7 0.00 0.00 0.00 61 1014.2
20260503053831 62 225 0.9 1.7 0.00 0.00 0.00 62 1014.3
20260503053329 62 228 0.9 2.6 0.00 0.00 0.00 62 1014.3
20260503052825 63 216 1.7 3.5 0.00 0.00 0.00 61 1014.2
20260503052322 62 218 0.9 1.7 0.00 0.00 0.00 62 1014.3
20260503051819 62 215 0.9 1.7 0.00 0.00 0.00 63 1014.4
20260503051315 62 239 1.7 1.7 0.00 0.00 0.00 65 1014.4
20260503050812 63 211 0.9 1.7 0.00 0.00 0.00 63 1014.3
20260503050308 63 228 0.9 2.6 0.00 0.00 0.00 62 1014.2
20260503045806 63 227 0.9 2.6 0.00 0.00 0.00 63 1014.2
20260503045305 63 204 1.7 2.6 0.00 0.00 0.00 62 1014.4
20260503044800 63 217 0.9 2.6 0.00 0.00 0.00 63 1014.4
20260503044257 62 214 0.9 1.7 0.00 0.00 0.00 63 1014.1
20260503043754 62 211 0.0 0.9 0.00 0.00 0.00 65 1014.1
20260503043251 63 239 0.9 0.9 0.00 0.00 0.00 65 1014.0
20260503042746 64 239 1.7 1.7 0.00 0.00 0.00 63 1014.1
20260503042244 64 219 1.7 2.6 0.00 0.00 0.00 61 1014.0
20260503041739 64 218 1.7 2.6 0.00 0.00 0.00 61 1014.1
20260503041238 64 238 1.7 2.6 0.00 0.00 0.00 60 1013.8
20260503040735 64 223 1.7 3.5 0.00 0.00 0.00 59 1014.0
20260503040232 65 182 1.7 2.6 0.00 0.00 0.00 59 1013.8
20260503035729 63 213 1.7 1.7 0.00 0.00 0.00 60 1013.9
20260503035227 63 251 0.0 0.9 0.00 0.00 0.00 63 1013.6
20260503034724 64 248 1.7 2.6 0.00 0.00 0.00 60 1013.4
20260503034220 62 231 1.7 2.6 0.00 0.00 0.00 62 1013.5
20260503033718 61 281 1.7 1.7 0.00 0.00 0.00 68 1013.4
20260503033215 61 281 1.7 2.6 0.00 0.00 0.00 68 1013.4
20260503032714 62 284 1.7 1.7 0.00 0.00 0.00 66 1013.4
20260503032212 63 284 1.7 1.7 0.00 0.00 0.00 64 1013.5
20260503031708 64 284 0.9 1.7 0.00 0.00 0.00 63 1013.3
20260503031208 65 284 0.9 1.7 0.00 0.00 0.00 61 1013.3
20260503030702 66 290 0.9 1.7 0.00 0.00 0.00 59 1013.3
20260503030159 74 225 1.7 1.7 0.00 0.00 0.00 40 1013.4
20260503025656 74 225 1.7 1.7 0.00 0.00 0.00 40 1013.3
20260503025154 74 225 1.7 1.7 0.00 0.00 0.00 40 1013.3
20260503024650 74 225 1.7 1.7 0.00 0.00 0.00 40 1013.2
20260503024148 74 225 1.7 1.7 0.00 0.00 0.00 40 1013.5
20260503023644 74 225 1.7 1.7 0.00 0.00 0.00 40 1013.4
20260503023141 74 225 1.7 1.7 0.00 0.00 0.00 40 1013.4
20260503022637 74 225 1.7 1.7 0.00 0.00 0.00 40 1013.4
20260503022137 74 225 1.7 1.7 0.00 0.00 0.00 40 1013.5
20260503021634 74 225 1.7 1.7 0.00 0.00 0.00 40 1013.4
20260503021131 74 225 1.7 1.7 0.00 0.00 0.00 40 1013.5
20260503020628 74 225 1.7 1.7 0.00 0.00 0.00 40 1013.5
20260503020125 75 293 0.0 0.9 0.00 0.00 0.00 40 1013.4
20260503015622 75 293 0.0 0.9 0.00 0.00 0.00 35 1013.4
20260503015119 75 293 0.9 0.9 0.00 0.00 0.00 35 1013.6
20260503014615 76 293 0.0 0.0 0.00 0.00 0.00 36 1013.5
20260503014113 75 293 0.0 0.0 0.00 0.00 0.00 34 1013.7
20260503013610 76 294 0.0 0.0 0.00 0.00 0.00 45 1013.7
20260503013108 75 293 0.0 0.0 0.00 0.00 0.00 33 1013.9
20260503012605 76 294 0.0 0.0 0.00 0.00 0.00 34 1013.7
20260503012101 76 293 0.0 0.0 0.00 0.00 0.00 34 1013.7
20260503011558 76 294 0.0 0.0 0.00 0.00 0.00 43 1014.0
20260503011055 77 270 2.6 3.5 0.00 0.00 0.00 38 1014.0
20260503010551 77 270 2.6 3.5 0.00 0.00 0.00 38 1013.9
20260503010049 77 270 2.6 3.5 0.00 0.00 0.00 38 1014.0
20260503005546 77 270 2.6 3.5 0.00 0.00 0.00 38 1014.0
20260503005043 77 270 2.6 3.5 0.00 0.00 0.00 38 1013.9
20260503004539 77 270 2.6 3.5 0.00 0.00 0.00 38 1014.0
20260503004038 77 270 2.6 3.5 0.00 0.00 0.00 38 1013.9
20260503003534 77 270 2.6 3.5 0.00 0.00 0.00 38 1013.9
20260503003031 77 270 2.6 3.5 0.00 0.00 0.00 38 1014.0
20260503002528 77 270 2.6 3.5 0.00 0.00 0.00 38 1014.1
20260503002025 77 270 2.6 3.5 0.00 0.00 0.00 38 1013.9
20260503001521 77 270 2.6 3.5 0.00 0.00 0.00 38 1013.9
20260503001019 77 270 2.6 5.2 0.00 0.00 0.00 40 1014.1
20260503000516 73 348 1.7 3.5 0.00 0.00 0.00 46 1013.9
20260503000013 73 349 2.6 3.5 0.00 0.00 0.00 49 1014.1
20260502235509 73 339 3.5 5.2 0.00 0.00 0.00 46 1014.2
20260502235007 73 331 0.9 1.7 0.00 0.00 0.00 43 1014.2
20260502234503 73 7 1.7 3.5 0.00 0.00 0.00 48 1014.1
20260502234001 75 343 3.5 5.2 0.00 0.00 0.00 45 1014.3
20260502233501 74 310 0.9 1.7 0.00 0.00 0.00 37 1014.4
20260502232958 74 336 0.9 1.7 0.00 0.00 0.00 45 1014.6
20260502232455 74 34 0.0 1.7 0.00 0.00 0.00 43 1014.5
20260502231951 75 0 1.7 2.6 0.00 0.00 0.00 43 1014.6
20260502231449 74 6 0.9 1.7 0.00 0.00 0.00 38 1014.6
20260502230947 74 324 0.0 1.7 0.00 0.00 0.00 44 1014.7
20260502230445 74 41 0.9 0.9 0.00 0.00 0.00 42 1014.7